Regional Weather Roundup
Issued by NWS

Home | Current Version | Previous Version | Text Only | Print | Product List | Glossary Off
Versions: 1 2 3 4 5 6 7 8 9 10 11 12 13 14 15 16 17 18 19 20 21 22 23 24 25 26 27 28 29 30 31 32 33 34 35 36 37 38 39 40 41 42 43 44 45 46 47 48 49 50

000
ASUS43 KFSD 312002
RWRSD

WEATHER ROUNDUP FOR SOUTH DAKOTA
NATIONAL WEATHER SERVICE SIOUX FALLS SD
300 PM CDT TUE MAY 31 2016

NOTE: "FAIR" INDICATES FEW OR NO CLOUDS BELOW 12,000 FEET WITH NO
SIGNIFICANT WEATHER AND/OR OBSTRUCTIONS TO VISIBILITY.


SDZ001>005-009-010-012>017-312100-
NORTHWEST AND NORTH CENTRAL SOUTH DAKOTA

CITY           SKY/WX    TMP DP  RH WIND       PRES   REMARKS
BUFFALO          N/A     55  48  77 W35G48    29.85R
FAITH            N/A     59  44  57 W36G51    29.84F
MOBRIDGE       LGT RAIN  58  49  72 SW20G28   29.74F
$$

SDZ012>016-024>037-041>051-057-063-072>074-312100-
SOUTHWEST AND SOUTH CENTRAL SOUTH DAKOTA

CITY           SKY/WX    TMP DP  RH WIND       PRES   REMARKS
RAPID CTY ARPT CLOUDY    64  39  39 NW29G36   29.96S
PIERRE         MOSUNNY   68  43  40 W30G47    29.86F
CUSTER         PTSUNNY   55  35  47 W21G41    30.03F
PHILIP         PTSUNNY   67  42  40 NW30G40   29.90F
PINE RIDGE     MOSUNNY   69  32  25 W20G40    29.99F
WINNER         FAIR      74  38  27 W24G35    29.88F
$$

SDZ004>011-016>023-039-040-312100-
NORTHEAST SOUTH DAKOTA

CITY           SKY/WX    TMP DP  RH WIND       PRES   REMARKS
ABERDEEN       CLOUDY    66  45  46 SW24G37   29.79F
WATERTOWN      MOSUNNY   70  45  40 W21G33    29.83F
BROOKINGS      SUNNY     69  45  41 W20G28    29.86F
SISSETON         N/A     68  46  45 W21       29.79F
$$

SDZ017-020-022-023-036>040-048>070-312100-
SOUTHEAST SOUTH DAKOTA

CITY           SKY/WX    TMP DP  RH WIND       PRES   REMARKS
SIOUX FALLS    CLOUDY    69  46  43 W13G20    29.90F
HURON          PTSUNNY   70  47  43 SW18G28   29.84F
MITCHELL       SUNNY     72  48  42 SW15G22   29.88F
YANKTON        CLOUDY    72  45  37 W10G18    29.91F
$$

ABBREVIATIONS USED IN REMARKS
   TC - TEMPERATURE IN CELSIUS
  WCI - WIND CHILL INDEX
   HX - HEAT INDEX
  VSB - VISIBILITY





USA.gov is the U.S. government's official web portal to all federal, state and local government web resources and services.